This demonstration page uses our WeatherBlox Daily Observations layout. Learn more.

Left ArrowRight Arrow

Hourly Observations for November 5, 2015

Temp ( °F °C ) Dew Point ( °F °C ) Humidity (%) Winds ( mph kmh ) Pressure ( in mb ) Visibility ( mi km ) Precip ( " mm )
12:53 am 00:53 Clear 29 -1.7 27 -2.8 92 92 SW 14 22 29.91 1013 10 16 N/A
1:53 am 01:53 Clear 29 -1.7 27 -2.8 92 92 SW 12 19 29.91 1013 10 16 N/A
2:53 am 02:53 Clear 29 -1.7 26 -3.3 89 89 SW 13 20 29.91 1013 10 16 N/A
3:53 am 03:53 Clear 28 -2.2 24 -4.4 85 85 SW 12 19 29.92 1013 10 16 N/A
4:53 am 04:53 Clear 28 -2.2 24 -4.4 85 85 SW 14 22 29.93 1014 10 16 N/A
5:53 am 05:53 Cloudy 28 -2.2 24 -4.4 85 85 SW 13 20 29.95 1014 10 16 N/A
6:53 am 06:53 Cloudy 30 -1.1 25 -3.9 82 82 SW 15 24 29.95 1014 10 16 N/A
7:53 am 07:53 Cloudy 30 -1.1 26 -3.3 85 85 SW 15 24 29.96 1015 10 16 N/A
8:53 am 08:53 Cloudy 32 undefined 27 -2.8 82 82 SW 14 22 29.97 1015 10 16 N/A
9:53 am 09:53 Cloudy 33 0.6 27 -2.8 78 78 SW 15 24 29.97 1015 10 16 N/A
10:53 am 10:53 Cloudy 35 1.7 28 -2.2 76 76 SW 16 26 29.97 1015 10 16 N/A
11:53 am 11:53 Cloudy 39 3.9 30 -1.1 70 70 SW 14 22 29.96 1015 10 16 N/A
12:53 pm 12:53 Cloudy 40 4.4 30 -1.1 68 68 SW 16 26 29.95 1014 10 16 N/A
1:53 pm 13:53 Cloudy 41 5 31 -0.6 67 67 SW 13 20 29.95 1014 10 16 N/A
2:53 pm 14:53 Mostly Cloudy 42 5.6 27 -2.8 55 55 W 12 19 29.97 1015 10 16 N/A
3:53 pm 15:53 Sunny 40 4.4 28 -2.2 63 63 WSW 9 15 29.98 1015 10 16 N/A
4:53 pm 16:53 Cloudy 38 3.3 29 -1.7 70 70 SW 9 15 30.00 1016 10 16 N/A
5:53 pm 17:53 Cloudy 38 3.3 28 -2.2 68 68 SW 9 15 30.01 1016 10 16 N/A
6:53 pm 18:53 Cloudy 37 2.8 29 -1.7 73 73 SW 13 20 30.02 1017 10 16 N/A
7:53 pm 19:53 Mostly Cloudy 35 1.7 30 -1.1 82 82 SW 15 24 30.04 1017 10 16 N/A
8:53 pm 20:53 Cloudy 34 1.1 29 -1.7 82 82 SW 8 13 30.06 1018 10 16 N/A
9:53 pm 21:53 Cloudy 34 1.1 29 -1.7 82 82 WSW 8 13 30.09 1019 10 16 N/A
10:53 pm 22:53 Cloudy 33 0.6 28 -2.2 82 82 WNW 6 9 30.11 1020 10 16 N/A
11:53 pm 23:53 Cloudy 32 undefined 27 -2.8 82 82 W 6 9 30.14 1021 10 16 N/A

Powered by AerisWeather